{"data":{"norad_id":68024,"epoch":"2026-05-25T02:37:06.513024Z","epoch_age_seconds":61569,"freshness":"FRESH","line1":"1 68024U 26040K   26145.10910316  .00028359  00000+0  87701-3 0  9993","line2":"2 68024  97.2843  94.1097 0001262  94.8334 265.3053 15.33461130 13170","mean_motion":15.3346113,"eccentricity":0.0001262,"inclination_deg":97.2843,"raan_deg":94.1097,"arg_perigee_deg":94.8334,"mean_anomaly_deg":265.3053,"bstar":0.00087701,"rev_number":1317,"period_min":93.905216886717,"perigee_km":464.63151698568,"apogee_km":466.35884974877,"semimajor_km":6843.6321833672,"source":"CELESTRAK","updated_at":"2026-05-25T13:38:21.806077Z"}}